Location: Unspecified
(0.0000°N, 0.0000°E)
Time: 04:10:13
(UTC+02:00)

Meteor 2-8 Rocket - Visible Passes

Search period start: 03 September 2014 00:00
Search period end: 13 September 2014 00:00
Orbit: 936 x 959 km, 82.5° (Epoch: 02 September)

Date Brightness Start Highest point End Pass type
(mag) Time Alt. Az. Time Alt. Az. Time Alt. Az.
08 Sep 6.0 21:29:44 10° SSE 21:41:09 11° NNE 21:41:24 10° NNE visible
09 Sep 4.3 21:46:22 10° S 21:52:31 86° E 21:58:36 10° N visible
10 Sep 6.1 20:23:47 10° ESE 20:24:53 11° E 20:25:59 10° E visible
10 Sep 5.1 22:03:28 10° SSW 22:09:25 53° W 22:15:19 10° N visible
11 Sep 5.5 20:37:22 10° SE 20:41:49 21° E 20:46:13 10° NE visible
11 Sep 6.1 22:21:08 10° SW 22:26:19 29° W 22:31:29 10° NNW visible
12 Sep 4.8 20:53:07 10° SSE 20:58:44 38° E 21:04:17 10° NNE visible
12 Sep 7.0 22:39:45 10° WSW 22:43:14 16° W 22:46:42 10° NW visible
